Probability
1 0 0 0 0 0 0 0 0 0 0 0 0 0 0 0 0 0 0 0 0 0 0 0 0 0 0 0 0 0 0 0 0 0 0 1 2 4
2 1 0 0 0 0 0 0 0 0 0 0 0 0 0 0 0 0 0 0 0 0 0 0 0 0 0 0 0 0 0 0 0 0 0 0 1 2
3 2 1 0 0 0 0 0 0 0 0 0 0 0 0 0 0 0 0 0 0 0 0 0 0 0 0 0 0 0 0 0 0 0 0 0 0 1
3 2 1 0 0 0 0 0 0 0 0 0 0 0 0 0 0 0 0 0 0 0 0 0 0 0 0 0 0 0 0 0 0 0 0 0 0 0
2 1 1 0 0 0 0 0 0 0 0 0 0 0 0 0 0 0 0 0 0 0 0 0 0 0 0 0 0 0 0 0 0 0 0 0 0 0
1 0 0 0 0 0 0 0 0 0 0 0 0 0 0 0 0 0 0 0 0 0 0 0 0 0 0 0 0 0 0 0 0 0 0 0 0 0
0 0 0 0 0 0 0 0 0 0 0 0 0 0 0 0 0 0 0 0 0 0 0 0 0 0 0 0 0 0 0 0 0 0 0 0 0 0
0 0 0 0 0 0 0 0 0 0 0 0 0 0 0 0 0 0 0 0 0 0 0 0 0 0 0 0 0 0 0 0 0 0 0 0 0 0
0 0 0 0 0 0 0 0 0 0 0 0 0 0 0 0 0 0 0 0 0 0 0 0 0 0 0 0 0 0 0 0 0 0 0 0 0 0
0 0 0 0 0 0 0 0 0 0 0 0 0 0 0 0 0 0 0 0 0 0 0 0 0 0 0 0 0 0 0 0 0 0 0 0 0 0
0 0 0 0 0 0 0 0 0 0 0 0 0 0 0 0 0 0 0 0 0 0 0 0 0 0 0 0 0 0 0 0 0 0 0 0 0 0
0 0 0 0 0 0 0 0 0 0 0 0 0 0 0 0 0 0 0 0 0 0 0 0 0 0 0 0 0 0 0 0 0 0 0 0 0 0
0 0 0 0 0 0 0 0 0 0 0 0 0 0 0 0 0 0 0 0 0 0 0 0 0 0 0 0 0 0 0 0 0 0 0 0 0 0
0 0 0 0 0 0 0 0 0 0 0 0 0 0 0 0 0 0 0 0 0 0 0 0 0 0 0 0 0 0 0 0 0 0 0 0 0 0
0 0 0 0 0 0 0 0 0 0 0 0 0 0 0 0 0 0 0 0 0 0 0 0 0 0 0 0 0 0 0 0 0 0 0 0 0 0
0 0 0 0 0 0 0 0 0 0 0 0 0 0 0 0 0 0 0 0 0 0 0 0 0 0 0 0 0 0 0 0 0 0 0 0 0 0
0 0 0 0 0 0 0 0 0 0 0 0 0 0 0 0 0 0 0 0 0 0 0 0 0 0 0 0 0 0 0 0 0 0 0 0 0 0
0 0 0 0 0 0 0 0 0 0 0 0 0 0 0 0 0 0 0 0 0 0 0 0 0 0 0 0 0 0 0 0 0 0 0 0 0 0
0 0 0 0 0 0 0 0 0 0 0 0 0 0 0 0 0 0 0 0 0 0 0 0 0 0 0 0 0 0 0 0 0 0 0 0 0 0
0 0 0 0 0 0 0 0 0 0 0 0 0 0 0 0 0 0 0 0 0 0 0 0 0 0 0 0 0 0 0 0 0 0 0 0 0 0
0 0 0 0 0 0 0 0 0 0 0 0 0 0 0 0 0 0 0 0 0 0 0 0 0 0 0 0 0 0 0 0 0 0 0 0 0 0
0 0 0 0 0 0 0 0 0 0 0 0 0 0 0 0 0 0 0 0 0 0 0 0 0 0 0 0 0 0 0 0 0 0 0 0 0 0
0 0 0 0 0 0 0 0 0 0 0 0 0 0 0 0 0 0 0 0 0 0 0 0 0 0 0 0 0 0 0 0 0 0 0 0 0 0
Wind_Speed
3 3 2 2 2 2 3 3 3 2 3 3 2 2 2 2 4 3 4 6 7 8 9 9 9 10 10 9 9 10 10 10 10 10 11 12 13 13
2 2 2 2 2 2 2 2 3 3 3 3 2 3 2 2 3 3 4 6 7 7 8 9 9 9 9 9 10 10 10 9 10 10 11 11 12 13
2 2 2 2 1 1 1 1 1 2 3 3 2 2 2 2 2 2 2 3 3 6 7 8 8 8 9 9 10 10 10 10 10 10 11 11 12 12
2 2 2 1 1 1 1 1 1 2 2 3 2 2 2 3 2 3 2 2 2 5 7 8 8 9 9 9 10 10 10 10 10 10 11 12 12 12
2 2 2 1 2 1 1 1 1 1 1 2 3 2 2 2 2 2 2 2 3 4 6 8 9 9 9 9 9 9 10 9 9 10 10 11 11 12
2 2 2 2 2 2 1 1 1 1 1 1 2 2 2 2 1 2 2 2 3 3 4 5 7 8 9 9 9 9 9 9 9 10 10 10 10 10
3 2 2 2 2 2 1 1 1 1 1 1 1 1 2 1 2 2 2 2 2 2 2 3 3 3 5 7 8 9 9 9 9 9 9 9 9 9
3 3 4 3 4 4 4 3 2 2 2 2 2 2 3 3 2 2 1 1 2 2 1 3 2 3 3 3 6 8 9 9 8 8 8 8 8 9
2 3 3 3 3 3 4 4 3 3 4 3 3 4 4 4 2 2 2 2 3 3 1 2 2 3 3 3 5 6 6 7 7 7 7 7 8 8
2 2 2 3 4 3 2 2 2 3 3 3 4 5 5 4 4 3 3 2 2 2 1 2 2 2 2 2 4 5 5 6 6 6 6 7 7 8
3 2 2 2 4 4 2 2 3 4 4 3 4 4 5 4 3 1 0 0 2 3 1 2 2 2 2 2 3 5 6 6 6 6 6 6 6 6
3 3 4 4 5 3 1 2 3 4 4 4 4 4 3 4 3 3 3 2 1 2 2 2 2 1 1 2 2 2 3 5 5 5 5 5 5 3
3 3 3 6 5 4 3 2 4 4 3 3 3 3 2 2 2 2 3 3 3 3 3 2 1 1 1 2 2 2 2 2 2 3 4 5 5 5
3 3 4 6 6 5 3 4 5 4 2 2 2 2 2 2 2 2 2 3 3 4 3 2 2 2 1 1 2 2 2 2 2 2 2 3 4 5
3 5 6 6 5 4 5 5 4 1 1 2 2 2 2 2 2 1 2 1 2 2 2 2 2 2 2 2 2 2 2 2 2 2 2 2 2 3
3 4 6 5 4 4 4 3 2 1 1 2 2 2 2 1 1 1 1 1 1 2 3 2 3 3 2 3 3 3 2 2 2 2 2 2 2 3
2 2 3 3 4 3 3 3 2 1 1 1 2 2 2 1 1 1 1 0 0 2 3 2 2 2 3 3 2 3 3 2 2 2 2 2 3 3
2 2 2 3 3 3 3 3 2 2 2 2 2 2 2 2 2 2 1 1 1 2 2 2 2 2 2 2 3 3 2 2 2 2 2 2 3 3
1 2 2 3 3 3 2 2 2 3 2 2 2 2 2 2 1 2 2 1 1 2 2 2 1 0 1 3 4 2 2 2 2 2 2 3 3 3
1 2 3 3 3 3 3 3 3 3 2 2 2 2 2 2 2 2 2 2 2 2 2 2 1 2 3 3 2 3 2 2 2 2 2 1 1 2
3 3 3 3 3 3 3 3 3 2 3 2 2 2 2 2 2 2 2 2 1 1 2 3 4 4 1 0 1 2 3 2 2 2 2 1 1 1
3 3 3 2 2 3 3 2 2 3 3 2 2 3 2 2 2 3 2 2 2 2 2 2 2 1 0 1 1 2 3 3 2 2 1 2 3 2
3 3 3 3 3 2 2 2 3 3 3 2 3 3 2 2 2 2 2 2 1 1 1 2 2 1 1 1 1 1 2 2 2 2 3 3 1 2
Wind_Direction
267 268 262 263 251 236 222 205 203 256 276 276 278 274 263 249 249 241 237 234 226 223 220 220 222 224 227 229 232 233 233 232 231 231 233 234 233 235
264 268 274 268 266 253 230 218 200 201 239 254 250 260 265 273 263 242 238 237 232 226 223 222 222 223 225 228 230 229 229 228 229 233 235 234 234 234
286 278 279 279 272 278 259 222 205 189 235 271 261 277 276 274 286 269 244 235 235 231 229 228 226 225 227 231 234 233 231 229 229 233 233 232 233 231
306 302 290 293 287 280 273 242 219 200 207 262 277 278 269 261 258 266 262 247 242 237 235 235 233 231 230 231 232 231 231 231 229 229 230 231 233 233
285 278 279 290 294 292 288 272 260 249 206 227 265 266 269 273 286 288 280 272 261 251 241 238 239 238 235 234 234 234 233 233 231 229 230 231 231 233
293 278 270 260 257 254 260 265 260 262 253 246 266 275 272 275 269 270 283 273 268 272 258 244 241 241 240 238 236 233 234 235 232 229 230 232 233 233
320 308 296 301 280 257 270 251 238 231 249 244 267 285 282 289 268 256 262 271 269 251 256 258 242 243 244 246 243 236 231 230 232 232 231 232 234 235
324 317 315 318 319 311 304 281 231 211 218 222 240 247 255 250 249 252 246 264 284 269 213 263 241 248 248 236 243 238 232 230 231 233 234 233 234 235
314 314 323 331 325 309 311 318 296 270 230 209 222 236 237 235 227 254 242 228 242 255 195 261 257 254 254 256 244 240 236 233 232 234 234 234 233 234
301 297 307 320 328 327 316 327 311 292 265 234 228 238 237 229 211 214 227 243 270 271 182 236 263 255 264 261 246 234 235 236 238 237 233 230 231 230
312 317 313 303 310 332 337 316 316 311 305 292 272 261 256 252 223 177 238 135 287 282 226 199 253 272 267 256 253 236 236 238 235 231 228 231 232 228
316 315 311 306 312 323 323 301 303 299 311 318 315 305 285 275 250 205 198 193 226 266 255 197 229 211 290 275 266 253 242 243 234 229 226 224 221 208
308 308 304 310 310 308 301 268 273 293 301 300 303 307 309 300 280 241 205 188 198 237 242 175 198 196 204 276 291 265 232 234 231 240 233 227 215 195
286 291 298 311 315 315 307 297 300 317 323 321 321 313 304 289 279 267 250 231 222 227 236 182 185 197 191 254 278 287 271 240 208 219 228 228 222 223
282 299 308 313 315 313 310 309 309 310 318 314 297 281 271 272 287 308 312 296 292 269 249 218 199 204 187 211 244 258 271 265 216 208 217 213 210 209
320 327 330 332 333 321 318 319 303 267 247 269 285 286 301 321 316 294 303 332 350 316 301 263 218 192 210 229 224 246 242 236 233 227 223 235 222 211
333 351 353 348 348 337 331 326 325 342 319 301 296 302 307 307 297 293 282 300 264 285 302 305 282 229 212 207 229 244 243 246 241 221 212 244 242 224
28 344 323 321 318 315 317 320 319 314 302 298 295 289 291 288 295 302 289 260 275 278 280 293 325 352 349 294 222 226 242 246 248 234 208 223 253 245
31 308 303 301 301 304 303 296 294 292 293 299 300 298 296 295 298 296 292 290 283 279 275 275 277 170 274 296 295 240 221 249 248 246 228 215 232 244
297 289 295 295 294 294 293 292 295 305 306 300 297 295 296 293 291 286 278 272 271 280 290 287 262 231 227 243 266 290 271 229 227 243 257 249 252 262
305 297 288 285 288 291 289 288 291 296 304 300 297 293 292 291 287 282 280 286 274 262 274 279 271 271 252 102 324 305 304 287 218 215 226 220 261 284
306 308 303 296 294 297 300 302 304 307 309 303 296 291 289 280 278 280 277 267 255 255 266 281 305 331 40 205 256 280 301 318 328 336 277 191 186 202
299 304 308 314 308 304 304 303 302 299 294 292 290 288 287 284 280 278 278 267 266 274 295 312 328 330 294 246 255 282 304 322 337 354 338 326 243 214